Hanford, CA

7:21 PM PST on December 15, 2017 (GMT -0800)
Hanford Municipal

Weather History for KHJO - August, 2014

Change the Weather History Date:

Saturday, August 16, 2014

  Actual Average Record
Temperature  
Mean Temperature 81 °F 78 °F  
Max Temperature 101 °F 96 °F 106 °F (2015)
Min Temperature 61 °F 61 °F 53 °F (2009)
Degree Days  
Heating Degree Days 0    
Month to date heating degree days 0  
Since 1 June heating degree days 0  
Since 1 July heating degree days 0  
Cooling Degree Days 16    
Month to date cooling degree days 287  
Year to date cooling degree days 1534  
Since 1 June cooling degree days 1246  
Growing Degree Days 31 (Base 50)    
Moisture  
Dew Point 51 °F    
Average Humidity 43    
Maximum Humidity 72    
Minimum Humidity 14    
Precipitation  
Precipitation 0.00 in 0.00 in 0.00 in (2017)
Month to date precipitation T 0.00  
Year to date precipitation 2.43 6.78  
Since 1 July precipitation T  
Snow  
Snow 0.00 in - - ()
Month to date snowfall 0.0  
Since 1 June snowfall 0.0  
Since 1 July snowfall 0.0  
Snow Depth 0.00 in    
Sea Level Pressure  
Sea Level Pressure 29.94 in    
Wind  
Wind Speed 5 mph (North)    
Max Wind Speed 15 mph    
Max Gust Speed 19 mph    
Visibility 10 miles    
Events      
T = Trace of Precipitation, MM = Missing Value Source: NWS Daily Summary

Daily Weather History Graph

Daily Weather History Graph

Search for Another Location

Airport or City:

Trip Planner

Search our weather history database for the weather conditions in past years. The results will help you decide how hot, cold, wet, or windy it might be!

Date:

Astronomy

Aug. 16, 2014 Rise Set
Actual Time 6:17 AM PDT 7:47 PM PDT
Civil Twilight 5:50 AM PDT 8:14 PM PDT
Nautical Twilight 5:17 AM PDT 8:47 PM PDT
Astronomical Twilight 4:42 AM PDT 9:21 PM PDT
Moon 11:47 PM PDT 12:55 PM PDT
Length of Visible Light 14h 24m
Length of Day
13h 30m
Waning Gibbous, 58% of the Moon is Illuminated
Aug 16
Waning Gibbous
Aug 17
Last Quarter
Aug 25
New
Sep 2
First Quarter
Sep 8
Full

Hourly Weather History & Observations

Time (PDT) Temp. Heat Index Dew Point Humidity Pressure Visibility Wind Dir Wind Speed Gust Speed Precip Events Conditions
12:53 AM 77.0 °F - 52.0 °F 42% 29.93 in 10.0 mi NW 12.7 mph - N/A   Clear
1:53 AM 75.0 °F - 50.0 °F 41% 29.94 in 10.0 mi NW 9.2 mph - N/A   Clear
2:53 AM 71.1 °F - 50.0 °F 47% 29.94 in 10.0 mi NNW 8.1 mph - N/A   Clear
3:53 AM 70.0 °F - 50.0 °F 49% 29.95 in 10.0 mi NNW 5.8 mph - N/A   Clear
4:53 AM 70.0 °F - 50.0 °F 49% 29.95 in 10.0 mi NNW 5.8 mph - N/A   Clear
5:53 AM 63.0 °F - 52.0 °F 67% 29.96 in 10.0 mi Calm Calm - N/A   Clear
6:53 AM 62.1 °F - 53.1 °F 72% 29.98 in 9.0 mi Calm Calm - N/A   Clear
7:53 AM 68.0 °F - 55.0 °F 63% 30.00 in 7.0 mi Calm Calm - N/A   Clear
8:53 AM 75.0 °F - 53.1 °F 46% 30.01 in 9.0 mi NNE 4.6 mph - N/A   Clear
9:53 AM 80.1 °F - 52.0 °F 38% 30.01 in 9.0 mi Calm Calm - N/A   Clear
10:53 AM 84.0 °F - 52.0 °F 33% 30.01 in 10.0 mi Calm Calm - N/A   Clear
11:53 AM 91.0 °F - 48.0 °F 23% 29.99 in 10.0 mi Calm Calm - N/A   Clear
12:53 PM 93.0 °F - 48.9 °F 22% 29.98 in 10.0 mi Variable 4.6 mph - N/A   Clear
1:53 PM 97.0 °F - 51.1 °F 21% 29.95 in 10.0 mi ESE 6.9 mph - N/A   Clear
2:53 PM 98.1 °F - 44.1 °F 16% 29.93 in 10.0 mi Variable 6.9 mph - N/A   Clear
3:53 PM 99.0 °F - 41.0 °F 14% 29.91 in 10.0 mi SSW 5.8 mph - N/A   Clear
4:53 PM 100.0 °F - 45.0 °F 15% 29.89 in 10.0 mi Variable 4.6 mph - N/A   Clear
5:53 PM 99.0 °F - 44.1 °F 15% 29.88 in 10.0 mi ENE 4.6 mph - N/A   Clear
6:53 PM 95.0 °F 93.0 °F 55.0 °F 26% 29.87 in 10.0 mi NE 6.9 mph - N/A   Clear
7:53 PM 90.0 °F 87.5 °F 53.1 °F 28% 29.88 in 10.0 mi ENE 4.6 mph - N/A   Clear
8:53 PM 84.0 °F 83.0 °F 55.9 °F 38% 29.89 in 9.0 mi NE 3.5 mph - N/A   Clear
9:53 PM 84.0 °F 82.6 °F 54.0 °F 35% 29.91 in 10.0 mi WNW 4.6 mph - N/A   Clear
10:53 PM 82.9 °F 81.9 °F 54.0 °F 37% 29.92 in 10.0 mi NW 9.2 mph - N/A   Clear